Location: Astronomy Club of Akron Observatory
(40.9700°N, 81.5606°W)
Time: 20:58:40
(UTC-04:00)

ATLAS 2AS CENTAUR R/B - Visible Passes

Search period start: 21 April 2018 00:00
Search period end: 01 May 2018 00:00
Orbit: 909 x 1302 km, 63.7° (Epoch: 18 April)

Date Brightness Start Highest point End Pass type
(mag) Time Alt. Az. Time Alt. Az. Time Alt. Az.
21 Apr 3.3 20:37:03 10° NNW 20:44:47 51° NE 20:51:55 10° ESE visible
21 Apr 3.9 22:28:33 10° NW 22:35:35 38° WSW 22:39:43 21° SSW visible
22 Apr 3.3 21:43:20 10° NW 21:51:02 60° WSW 21:56:47 16° SSE visible
23 Apr 3.0 20:58:21 10° NW 21:06:18 89° WSW 21:13:33 10° SSE visible
23 Apr 4.9 22:51:24 10° WNW 22:56:06 18° WSW 23:00:34 10° SW visible
24 Apr 4.4 22:05:23 10° NW 22:11:48 29° WSW 22:17:46 10° SSW visible
25 Apr 3.8 21:19:58 10° NW 21:27:20 46° WSW 21:34:05 10° S visible
26 Apr 3.3 20:34:53 10° NW 20:42:43 71° WSW 20:49:51 10° SSE visible
26 Apr 5.2 22:29:22 10° WNW 22:32:10 12° W 22:34:55 10° WSW visible
27 Apr 4.9 21:42:26 10° WNW 21:47:57 22° WSW 21:53:10 10° SSW visible
28 Apr 4.4 20:56:44 10° NW 21:03:35 35° WSW 21:09:57 10° S visible
30 Apr 5.2 21:19:50 10° WNW 21:24:04 16° WSW 21:28:07 10° SW visible
